Regional Weather Roundup
Issued by NWS

Home | Current Version | Previous Version | Graphics & Text | Print | Product List | Glossary On
Versions: 1 2 3 4 5 6 7 8 9 10 11 12 13 14 15 16 17 18 19 20 21 22 23 24 25 26 27 28 29 30 31 32 33 34 35 36 37 38 39 40 41 42 43 44 45 46 47 48 49 50
000
ASUS45 KSLC 270310
RWRUT

UTAH REGIONAL WEATHER ROUNDUP
NATIONAL WEATHER SERVICE SALT LAKE CITY UT
900 PM MDT MON JUN 26 2017

UTZ001>011-023>025-270400-

NORTHERN UTAH

CITY           SKY/WX    TMP DP  RH WIND       PRES   REMARKS
BRIGHAM CITY   CLOUDY    86  47  26 CALM      29.86S
HILL AFB       CLOUDY    85  38  18 SE6       29.91S
LOGAN          MOCLDY    83  53  35 S7        29.87F
OGDEN          CLOUDY    86  43  22 S5        29.87S
SALT LAKE CITY CLOUDY    93  33  12 SW14G30   29.87R
TOOELE VALLEY  CLOUDY    86  41  20 SE12      29.86F
WENDOVER       NOT AVBL
HEBER CITY     MOCLDY    73  43  33 CALM      30.00R
WEST JORDAN    CLOUDY    89  52  27 S8G22     29.92S

$$

UTZ011>015-024>027-270400-

CENTRAL/NORTHEAST UTAH

CITY           SKY/WX    TMP DP  RH WIND       PRES   REMARKS
PROVO AIRPORT  CLOUDY    89  35  14 E7        29.91F
MOAB/CANYONLAN MOCLDY    92  18   6 W10       29.90F
DELTA          CLEAR     86  19   8 S13G18    29.91S
PRICE          PTCLDY    82  27  13 E7        30.03F
RICHFIELD      CLEAR     79  27  14 S6G13     30.01R
VERNAL         CLEAR     78  37  22 N6        30.01F

$$

UTZ013>016-019>022-027-270400-

SOUTHERN UTAH

CITY           SKY/WX    TMP DP  RH WIND       PRES   REMARKS
BRYCE CANYON   CLEAR     67  22  18 SW10      30.25S
CEDAR CITY     CLEAR     78   9   7 SW9       30.06S
MILFORD        CLEAR     86   2   4 SW18G26   29.98S
ST GEORGE      MOCLDY    97   9   4 SW12      29.83S HX  90
HANKSVILLE     PTCLDY    91  30  11 CALM      29.91F
KANAB          CLEAR     82  16   8 SW8       30.07R
BLANDING       PTCLDY    79  31  17 NW5       30.14S

$$

REGIONAL REPORTS     COLORADO/ARIZONA

CITY           SKY/WX    TMP DP  RH WIND       PRES   REMARKS
CRAIG, CO      CLOUDY    68  37  32 CALM      30.10R
GRAND JUNCTION CLEAR     84  17   8 N6        29.94F
RIFLE, CO      CLOUDY    80  24  12 SW6       30.03F
MONTROSE, CO   CLEAR     81  31  16 S6        30.06S
CORTEZ, CO     CLEAR     74  37  26 S8        30.10S
COLORADO CITY    N/A     86  14   7 SW9       30.06S
PAGE, AZ       CLEAR     95  23   7 VRB7      29.93R
GRAND CANYON   CLEAR     78  20  11 SW6       30.22R
KINGMAN, AZ    CLEAR     95  29   9 SW13      29.93F
FLAGSTAFF, AZ  CLEAR     77  21  12 SW12      30.25S

$$

REGIONAL REPORTS    NEVADA/IDAHO/WYOMING

CITY           SKY/WX    TMP DP  RH WIND       PRES   REMARKS
LAS VEGAS, NV  CLEAR    101  -3   2 SW9G20    29.78S HX  93
ELY, NY        CLEAR     81  26  13 S12       30.02S
ELKO, NV       MOCLDY    82  40  22 NW5       29.94S
POCATELLO, ID  CLOUDY    77  42  28 S8        29.91F
BURLEY, ID     CLOUDY    71  54  54 N5        29.88S
FORT BRIDGER,    N/A     71  37  29 S10       30.17S
EVANSTON, WY   CLOUDY    77  32  19 CALM      30.13F
ROCK SPRINGS,  CLOUDY    72  30  21 SW14      30.12F
KEMMERER, WY     N/A     73  30  20 S6        30.16F

$$



USA.gov is the U.S. government's official web portal to all federal, state and local government web resources and services.